Location: Newark
(32.8014°N, 52.8711°E)
Time: 10:52:01
(UTC+00:00)

Envisat - Pass Details

Date: 01 February 2020
Orbit: 764 x 766 km, 98.1° (Epoch: 20 February)

Event Time Altitude Azimuth Distance (km) Brightness Sun altitude
Rises 01:55:25 0° 34° (NE) 3,232 6.6 -18.8°
Reaches altitude 10° 01:58:36 10° 55° (NE) 2,302 6.1 -18.2°
Maximum altitude 02:01:44 16° 94° (E) 1,890 6.1 -17.5°
Drops below altitude 10° 02:04:52 10° 132° (SE) 2,293 6.3 -16.9°
Sets 02:08:00 0° 153° (SSE) 3,214 6.8 -16.2°
